FENGYUN 1C DEB

Satellite information

Favourite Embed

Satellite Type and Status

DEBRISIN ORBIT

Key statistics

Satellite FENGYUN 1C DEB at a glance.

Uptime

9617

Days in orbit

Revolutions

≈ 14.3

Per day

Orbit

SSO

Sun Synchronous Orbit

Inclination

99.4

Latest

Satellite identification and parameters

Extended collection of information and parameters for FENGYUN 1C DEB.

Object identification

Identified? True

Debris? True

Object name: FENGYUN 1C DEB

International designator: 1999-025CCF

Object number (NORAD): 31673

Object ID (CCSDS): 31673

Country: PEOPLES REPUBLIC OF CHINA (PRC)

Current information (Y/N): Y

RCS size: SMALL

Orbital parameters

Period: 100.578 minutes

Inclination: 99.3812 deg

SMA: 7164.115 km

Apoapsis: 875.618 km

Periapsis: 696.342 km

RAAN: 75.386 deg

Eccentricy: 0.01251209

Argument of periapsis: 331.1171 deg

Mean anomaly: 28.3123 deg

Mean motion: 14.3172287 rev/day

Mean motion (dot): 0.00000831 rev/day2

B* drag term: 0.0003042749 1/REarth

Two-line elements (TLE)

Creation date: Sept. 6, 2025, 2:09 a.m.

Reference frame: TEME

Reference center: EARTH

Epoch: Sept. 5, 2025, 6:46 p.m. UTC

TLE line 0: 0 FENGYUN 1C DEB

TLE line 1: 1 31673U 99025CCF 25248.78222078 .00000831 00000-0 30427-3 0 9993

TLE line 2: 2 31673 99.3812 75.3860 0125121 331.1171 28.3123 14.31722870634896

Live tracking on map

Real-time ground track for satellite FENGYUN 1C DEB.

In-orbit conjunctions

A list of the most updated potential collisions computed for object FENGYUN 1C DEB.

Target Orbit TCA Probability of collision Miss distance Type
COSMOS 1452 LEO 2025-02-10 08:44:40 0.0006323392 267.0 (m) PAYLOAD
FENGYUN 1C DEB SSO 2025-01-18 12:11:09 0.000229572 163.0 (m) DEBRIS
CZ-6A DEB LEO 2024-12-26 11:40:53 0.0002459599 889.0 (m) DEBRIS
DELTA 1 R/B(1) LEO 2024-10-08 18:43:20 0.0002832922 922.0 (m) ROCKET BODY

Associated space launch

Chinese polar orbiting meteorological satellite

FENGYUN 1C DEB was lifted into orbit during the mission ‘Long March 4B | Feng Yun 1C’, on board a Long March 4B space rocket.

The launch took place on May 10, 1999, 1:33 a.m. from Launch Complex 7.

For more information about the launch, click the button.

Launch to space Long March 4B | Feng Yun 1C
Long March 4B | Feng Yun 1C

Agency: N/A

Status: Launch Successful

Launch date: May 10, 1999, 1:33 a.m. UTC

Rocket: Long March 4B

Launch pad: Launch Complex 7

Location: Taiyuan Satellite Launch Center, People's Republic of China

...

Latest news about this satellite

There are no fresh news available about this satellite. Check back as we update our databases every day.


Newsletter sign-up

Weekly statistics, charts and insights to help you stay on top of the space industry.